Location: Palomar Mountain Lodge
(33.3110°N, 116.8495°W)
Time: 22:18:58
(UTC-07:00)

Meteor 1-24 Rocket - Pass Details

Date: 14 June 2018
Orbit: 790 x 928 km, 81.3° (Epoch: 21 August)

Event Time Altitude Azimuth Distance (km) Brightness Sun altitude
Exits shadow 22:25:26 51° 173° (S) 1,140 4.0 -24.0°
Maximum altitude 22:27:02 80° 97° (E) 937 3.7 -24.2°
Drops below altitude 10° 22:33:04 10° 11° (N) 2,632 6.8 -24.9°
Sets 22:35:34 0° 10° (N) 3,578 7.6 -25.2°
